Time,TemperatureF,DewpointF,PressureIn,WindDirection,WindDirectionDegrees,WindSpeedMPH,WindSpeedGustMPH,Humidity,HourlyPrecipIn,Conditions,Clouds,dailyrainin,SoftwareType,DateUTC
2013-02-20 00:00:00,23.5,19.9,29.74,WSW,247,9.9,-999.0,86,-99.99,,,0.00,Acu-Link.com,2013-02-20 05:00:00,
2013-02-20 00:15:00,23.2,20.2,29.74,SW,225,6.8,-999.0,88,-99.99,,,0.00,Acu-Link.com,2013-02-20 05:15:00,
2013-02-20 00:30:00,23.2,18.8,29.74,ENE,67,9.4,-999.0,83,-99.99,,,0.00,Acu-Link.com,2013-02-20 05:30:00,
2013-02-20 00:46:00,23.5,18.0,29.74,SW,225,14.0,-999.0,79,-99.99,,,0.00,Acu-Link.com,2013-02-20 05:46:00,
2013-02-20 01:01:00,23.5,18.8,29.75,NNE,22,6.8,-999.0,82,-99.99,,,0.00,Acu-Link.com,2013-02-20 06:01:00,
2013-02-20 01:16:00,23.4,18.2,29.75,ENE,67,6.3,-999.0,80,-99.99,,,0.00,Acu-Link.com,2013-02-20 06:16:00,
2013-02-20 01:31:00,23.0,20.0,29.75,SW,225,20.7,-999.0,88,-99.99,,,0.00,Acu-Link.com,2013-02-20 06:31:00,
2013-02-20 01:46:00,22.1,20.4,29.76,SSW,202,9.4,-999.0,93,-99.99,,,0.00,Acu-Link.com,2013-02-20 06:46:00,
2013-02-20 02:01:00,21.9,21.2,29.76,NNE,22,7.3,-999.0,97,-99.99,,,0.00,Acu-Link.com,2013-02-20 07:01:00,
2013-02-20 02:16:00,22.3,19.0,29.75,SW,225,11.4,-999.0,87,-99.99,,,0.00,Acu-Link.com,2013-02-20 07:16:00,
2013-02-20 02:31:00,21.7,19.5,29.76,West,270,13.5,-999.0,91,-99.99,,,0.00,Acu-Link.com,2013-02-20 07:31:00,
2013-02-20 02:46:00,21.6,18.6,29.76,NNW,337,17.1,-999.0,88,-99.99,,,0.00,Acu-Link.com,2013-02-20 07:46:00,
2013-02-20 03:17:00,21.6,18.9,29.77,SSW,202,6.3,-999.0,89,-99.99,,,0.00,Acu-Link.com,2013-02-20 08:17:00,
2013-02-20 03:32:00,21.4,18.7,29.76,SSW,202,3.2,-999.0,89,-99.99,,,0.00,Acu-Link.com,2013-02-20 08:32:00,
2013-02-20 03:47:00,21.6,18.1,29.77,SW,225,10.9,-999.0,86,-99.99,,,0.00,Acu-Link.com,2013-02-20 08:47:00,
2013-02-20 04:18:00,21.0,18.3,29.78,SW,225,7.8,-999.0,89,-99.99,,,0.00,Acu-Link.com,2013-02-20 09:18:00,
2013-02-20 04:33:00,21.4,18.1,29.79,West,270,7.8,-999.0,87,-99.99,,,0.00,Acu-Link.com,2013-02-20 09:33:00,
2013-02-20 04:48:00,21.2,18.2,29.79,West,270,9.9,-999.0,88,-99.99,,,0.00,Acu-Link.com,2013-02-20 09:48:00,
2013-02-20 05:03:00,21.0,18.0,29.79,NNE,22,5.3,-999.0,88,-99.99,,,0.00,Acu-Link.com,2013-02-20 10:03:00,
2013-02-20 05:18:00,20.7,17.5,29.80,ENE,67,6.3,-999.0,87,-99.99,,,0.00,Acu-Link.com,2013-02-20 10:18:00,
2013-02-20 05:33:00,20.5,18.3,29.80,NW,315,6.3,-999.0,91,-99.99,,,0.00,Acu-Link.com,2013-02-20 10:33:00,
2013-02-20 05:49:00,20.1,18.2,29.80,SE,135,4.7,-999.0,92,-99.99,,,0.00,Acu-Link.com,2013-02-20 10:49:00,
2013-02-20 06:04:00,19.9,18.2,29.81,West,270,7.3,-999.0,93,-99.99,,,0.00,Acu-Link.com,2013-02-20 11:04:00,
2013-02-20 06:19:00,19.9,18.2,29.81,West,270,4.2,-999.0,93,-99.99,,,0.00,Acu-Link.com,2013-02-20 11:19:00,
2013-02-20 06:34:00,19.9,17.7,29.81,SW,225,9.9,-999.0,91,-99.99,,,0.00,Acu-Link.com,2013-02-20 11:34:00,
2013-02-20 06:49:00,20.3,17.6,29.82,WNW,292,6.3,-999.0,89,-99.99,,,0.00,Acu-Link.com,2013-02-20 11:49:00,
2013-02-20 07:04:00,20.3,17.6,29.83,SSW,202,2.7,-999.0,89,-99.99,,,0.00,Acu-Link.com,2013-02-20 12:04:00,
2013-02-20 07:19:00,19.4,17.7,29.83,WNW,292,8.9,-999.0,93,-99.99,,,0.00,Acu-Link.com,2013-02-20 12:19:00,
2013-02-20 07:34:00,19.8,16.3,29.84,SSW,202,4.2,-999.0,86,-99.99,,,0.00,Acu-Link.com,2013-02-20 12:34:00,
2013-02-20 07:49:00,19.8,17.4,29.84,North,0,7.8,-999.0,90,-99.99,,,0.00,Acu-Link.com,2013-02-20 12:49:00,
2013-02-20 08:04:00,19.4,15.9,29.85,WNW,292,5.3,-999.0,86,-99.99,,,0.00,Acu-Link.com,2013-02-20 13:04:00,
2013-02-20 08:20:00,19.8,16.3,29.85,WNW,292,8.9,-999.0,86,-99.99,,,0.00,Acu-Link.com,2013-02-20 13:20:00,
2013-02-20 08:35:00,19.9,14.5,29.85,SW,225,8.9,-999.0,79,-99.99,,,0.00,Acu-Link.com,2013-02-20 13:35:00,
2013-02-20 08:50:00,20.8,13.5,29.86,NNW,337,8.3,-999.0,73,-99.99,,,0.00,Acu-Link.com,2013-02-20 13:50:00,
2013-02-20 09:05:00,21.2,13.0,29.86,West,270,7.3,-999.0,70,-99.99,,,0.00,Acu-Link.com,2013-02-20 14:05:00,
2013-02-20 09:20:00,21.0,13.4,29.87,West,270,10.4,-999.0,72,-99.99,,,0.00,Acu-Link.com,2013-02-20 14:20:00,
2013-02-20 09:35:00,21.2,11.6,29.86,WNW,292,9.9,-999.0,66,-99.99,,,0.00,Acu-Link.com,2013-02-20 14:35:00,
2013-02-20 09:50:00,22.1,12.8,29.87,NW,315,8.3,-999.0,67,-99.99,,,0.00,Acu-Link.com,2013-02-20 14:50:00,
2013-02-20 10:05:00,22.1,12.8,29.87,WNW,292,5.3,-999.0,67,-99.99,,,0.00,Acu-Link.com,2013-02-20 15:05:00,
2013-02-20 10:20:00,22.1,14.2,29.88,ESE,112,4.2,-999.0,71,-99.99,,,0.00,Acu-Link.com,2013-02-20 15:20:00,
2013-02-20 10:36:00,21.9,14.0,29.89,South,180,5.3,-999.0,71,-99.99,,,0.00,Acu-Link.com,2013-02-20 15:36:00,
2013-02-20 10:51:00,21.6,12.4,29.89,SSE,157,7.3,-999.0,67,-99.99,,,0.00,Acu-Link.com,2013-02-20 15:51:00,
2013-02-20 11:06:00,21.9,12.7,29.90,SSE,157,14.5,-999.0,67,-99.99,,,0.00,Acu-Link.com,2013-02-20 16:06:00,
2013-02-20 11:21:00,21.6,12.4,29.89,West,270,9.9,-999.0,67,-99.99,,,0.00,Acu-Link.com,2013-02-20 16:21:00,
2013-02-20 11:36:00,21.0,12.1,29.90,NW,315,5.3,-999.0,68,-99.99,,,0.01,Acu-Link.com,2013-02-20 16:36:00,
2013-02-20 11:51:00,21.4,11.5,29.91,NNW,337,10.9,-999.0,65,-99.99,,,0.01,Acu-Link.com,2013-02-20 16:51:00,
2013-02-20 12:06:00,21.6,13.0,29.92,NNW,337,8.3,-999.0,69,-99.99,,,0.01,Acu-Link.com,2013-02-20 17:06:00,
2013-02-20 12:21:00,20.8,14.5,29.92,WNW,292,3.7,-999.0,76,-99.99,,,0.01,Acu-Link.com,2013-02-20 17:21:00,
2013-02-20 12:37:00,20.1,17.1,29.92,West,270,5.3,-999.0,88,-99.99,,,0.01,Acu-Link.com,2013-02-20 17:37:00,
2013-02-20 12:52:00,20.3,15.7,29.92,SW,225,8.9,-999.0,82,-99.99,,,0.01,Acu-Link.com,2013-02-20 17:52:00,
2013-02-20 13:07:00,21.9,13.0,29.92,NNW,337,8.9,-999.0,68,-99.99,,,0.01,Acu-Link.com,2013-02-20 18:07:00,
2013-02-20 13:22:00,21.6,12.7,29.92,SW,225,7.3,-999.0,68,-99.99,,,0.01,Acu-Link.com,2013-02-20 18:22:00,
2013-02-20 13:37:00,21.4,12.5,29.92,South,180,8.9,-999.0,68,-99.99,,,0.01,Acu-Link.com,2013-02-20 18:37:00,
2013-02-20 13:52:00,21.9,13.3,29.93,East,90,4.2,-999.0,69,-99.99,,,0.01,Acu-Link.com,2013-02-20 18:52:00,
2013-02-20 14:07:00,21.6,13.0,29.94,SSW,202,5.3,-999.0,69,-99.99,,,0.01,Acu-Link.com,2013-02-20 19:07:00,
2013-02-20 14:22:00,21.6,13.4,29.95,ENE,67,7.8,-999.0,70,-99.99,,,0.01,Acu-Link.com,2013-02-20 19:22:00,
2013-02-20 14:37:00,21.2,13.3,29.95,SSE,157,10.4,-999.0,71,-99.99,,,0.01,Acu-Link.com,2013-02-20 19:37:00,
2013-02-20 14:53:00,21.7,13.8,29.96,WNW,292,9.9,-999.0,71,-99.99,,,0.01,Acu-Link.com,2013-02-20 19:53:00,
2013-02-20 15:08:00,21.2,14.8,29.96,SSW,202,9.9,-999.0,76,-99.99,,,0.01,Acu-Link.com,2013-02-20 20:08:00,
2013-02-20 15:23:00,21.2,13.9,29.97,ENE,67,4.2,-999.0,73,-99.99,,,0.01,Acu-Link.com,2013-02-20 20:23:00,
2013-02-20 15:38:00,21.4,13.5,29.98,WNW,292,6.3,-999.0,71,-99.99,,,0.01,Acu-Link.com,2013-02-20 20:38:00,
2013-02-20 15:53:00,21.6,14.0,29.98,South,180,11.4,-999.0,72,-99.99,,,0.01,Acu-Link.com,2013-02-20 20:53:00,
2013-02-20 16:08:00,21.4,13.8,29.99,West,270,6.8,-999.0,72,-99.99,,,0.01,Acu-Link.com,2013-02-20 21:08:00,
2013-02-20 16:23:00,21.0,14.0,29.99,SW,225,11.9,-999.0,74,-99.99,,,0.01,Acu-Link.com,2013-02-20 21:23:00,
2013-02-20 16:39:00,21.0,14.6,30.00,South,180,6.8,-999.0,76,-99.99,,,0.01,Acu-Link.com,2013-02-20 21:39:00,
2013-02-20 16:54:00,20.8,13.5,30.00,SW,225,2.7,-999.0,73,-99.99,,,0.01,Acu-Link.com,2013-02-20 21:54:00,
2013-02-20 17:09:00,20.7,14.7,30.01,NNW,337,3.2,-999.0,77,-99.99,,,0.01,Acu-Link.com,2013-02-20 22:09:00,
2013-02-20 17:24:00,20.5,15.9,30.02,ENE,67,4.7,-999.0,82,-99.99,,,0.01,Acu-Link.com,2013-02-20 22:24:00,
2013-02-20 17:39:00,20.3,13.7,30.04,West,270,14.0,-999.0,75,-99.99,,,0.01,Acu-Link.com,2013-02-20 22:39:00,
2013-02-20 17:54:00,20.3,13.7,30.03,NNW,337,2.7,-999.0,75,-99.99,,,0.01,Acu-Link.com,2013-02-20 22:54:00,
2013-02-20 18:09:00,20.1,14.7,30.03,NNW,337,10.9,-999.0,79,-99.99,,,0.01,Acu-Link.com,2013-02-20 23:09:00,
2013-02-20 18:25:00,19.8,13.8,30.04,South,180,5.3,-999.0,77,-99.99,,,0.01,Acu-Link.com,2013-02-20 23:25:00,
2013-02-20 18:40:00,20.1,13.5,30.05,SSW,202,3.2,-999.0,75,-99.99,,,0.01,Acu-Link.com,2013-02-20 23:40:00,
2013-02-20 18:55:00,19.9,13.0,30.06,West,270,11.4,-999.0,74,-99.99,,,0.01,Acu-Link.com,2013-02-20 23:55:00,
2013-02-20 19:10:00,19.9,12.7,30.06,WSW,247,2.7,-999.0,73,-99.99,,,0.01,Acu-Link.com,2013-02-21 00:10:00,
2013-02-20 19:25:00,19.6,14.5,30.07,WNW,292,5.8,-999.0,80,-99.99,,,0.01,Acu-Link.com,2013-02-21 00:25:00,
2013-02-20 19:40:00,19.8,14.1,30.07,NW,315,10.4,-999.0,78,-99.99,,,0.01,Acu-Link.com,2013-02-21 00:40:00,
2013-02-20 19:55:00,19.6,14.2,30.06,WSW,247,8.3,-999.0,79,-99.99,,,0.01,Acu-Link.com,2013-02-21 00:55:00,
2013-02-20 20:10:00,19.4,12.8,30.07,South,180,6.8,-999.0,75,-99.99,,,0.01,Acu-Link.com,2013-02-21 01:10:00,
2013-02-20 20:26:00,19.6,13.3,30.07,South,180,7.3,-999.0,76,-99.99,,,0.01,Acu-Link.com,2013-02-21 01:26:00,
2013-02-20 20:41:00,19.6,12.7,30.07,SSW,202,7.3,-999.0,74,-99.99,,,0.01,Acu-Link.com,2013-02-21 01:41:00,
2013-02-20 20:56:00,19.8,12.3,30.07,SW,225,6.8,-999.0,72,-99.99,,,0.01,Acu-Link.com,2013-02-21 01:56:00,
2013-02-20 21:11:00,19.8,12.6,30.07,South,180,5.3,-999.0,73,-99.99,,,0.01,Acu-Link.com,2013-02-21 02:11:00,
2013-02-20 21:26:00,19.8,11.9,30.08,West,270,12.5,-999.0,71,-99.99,,,0.01,Acu-Link.com,2013-02-21 02:26:00,
2013-02-20 21:41:00,19.9,12.7,30.08,WNW,292,6.8,-999.0,73,-99.99,,,0.01,Acu-Link.com,2013-02-21 02:41:00,
2013-02-20 21:56:00,20.1,12.5,30.08,SW,225,3.2,-999.0,72,-99.99,,,0.01,Acu-Link.com,2013-02-21 02:56:00,
2013-02-20 22:11:00,20.1,12.5,30.07,West,270,9.4,-999.0,72,-99.99,,,0.01,Acu-Link.com,2013-02-21 03:11:00,
2013-02-20 22:27:00,20.1,12.5,30.07,West,270,3.2,-999.0,72,-99.99,,,0.01,Acu-Link.com,2013-02-21 03:27:00,
2013-02-20 22:42:00,20.3,13.4,30.06,WNW,292,7.3,-999.0,74,-99.99,,,0.01,Acu-Link.com,2013-02-21 03:42:00,
2013-02-20 23:12:00,20.3,13.1,30.07,WNW,292,4.7,-999.0,73,-99.99,,,0.01,Acu-Link.com,2013-02-21 04:12:00,
2013-02-20 23:27:00,20.3,13.1,30.06,SSW,202,4.2,-999.0,73,-99.99,,,0.01,Acu-Link.com,2013-02-21 04:27:00,
2013-02-20 23:42:00,20.3,13.1,30.06,North,0,4.2,-999.0,73,-99.99,,,0.01,Acu-Link.com,2013-02-21 04:42:00,
2013-02-20 23:57:00,20.5,12.9,30.06,WSW,247,5.3,-999.0,72,-99.99,,,0.01,Acu-Link.com,2013-02-21 04:57:00,